SCP
0 -0 0 0 0 0 0 0 0 0 0 0 0 0 0 0 0 0 0 0 0 0 0 0 0 0 0 0 0 0 0 0 0 0 0 0 0 0 0 0 2 2 2 2
0 0 0 0 0 0 0 0 0 0 0 0 0 0 0 0 0 0 0 0 0 0 0 0 0 0 0 0 0 0 0 0 0 0 0 0 0 0 1 0 2 2 4 4
0 0 0 0 0 0 0 0 0 0 0 0 0 0 0 0 0 0 0 0 0 0 0 0 0 0 0 0 0 0 0 0 0 0 0 0 0 1 0 1 1 2 1 4
0 0 0 0 0 0 0 0 0 0 0 0 0 0 0 0 0 0 0 0 0 0 0 0 0 0 0 0 0 0 0 0 0 0 0 0 0 0 0 1 1 2 2 4
0 0 0 0 0 0 0 0 0 0 0 0 0 0 0 0 0 0 0 0 0 0 0 0 0 0 0 0 0 0 0 0 0 0 0 0 0 0 0 0 2 3 3 1
0 0 0 0 0 0 0 0 0 0 0 0 0 0 0 0 0 0 0 0 0 0 0 0 0 0 0 0 0 0 0 0 0 0 0 0 0 0 0 0 0 1 2 1
0 0 0 0 0 0 0 0 0 0 0 0 0 0 0 0 0 0 0 0 0 0 0 0 0 0 0 0 0 0 0 0 0 0 0 0 0 0 -0 -0 0 1 1 2
0 0 0 0 0 0 0 0 0 0 0 0 0 0 0 0 0 0 0 0 0 0 0 0 0 0 0 0 0 0 0 0 0 0 0 0 -0 0 -0 -0 0 0 1 2
0 0 0 0 0 0 0 0 0 0 0 0 0 0 0 0 0 0 0 0 0 0 0 0 0 0 0 0 0 0 0 0 0 0 0 0 0 0 0 0 0 0 0 0
0 0 0 0 0 0 0 0 0 0 0 0 0 0 0 0 0 0 0 0 0 0 0 0 0 0 0 0 0 0 0 0 0 0 0 0 0 0 0 0 0 0 0 1
0 0 0 0 0 0 0 0 0 0 0 0 0 0 0 0 0 0 0 0 0 0 0 0 0 0 0 0 0 0 0 0 0 0 0 0 0 -0 0 0 0 0 0 1
0 0 0 0 -0 0 0 0 0 0 0 0 0 0 0 0 0 0 0 0 0 0 0 -0 0 0 0 0 0 0 0 0 0 0 0 0 0 -0 -0 0 0 0 0 0
0 0 0 0 0 0 0 0 0 0 0 0 0 0 0 0 0 0 0 0 0 0 0 0 0 0 0 0 0 0 0 0 0 0 0 -0 -0 0 0 0 0 0 0 0
0 0 0 0 0 0 0 0 0 0 0 0 0 0 0 0 0 0 0 0 0 0 0 0 0 0 0 0 0 0 0 0 0 0 0 -0 -0 0 0 0 0 0 0 0
0 0 0 0 0 0 0 0 0 0 0 0 0 0 0 0 0 0 0 0 0 0 0 0 0 0 0 0 0 0 0 0 0 -0 -0 0 0 0 0 0 0 0 0 0
0 0 0 0 0 0 0 0 0 0 0 0 0 0 0 0 0 0 0 0 0 0 0 0 0 0 0 0 0 0 0 0 -0 -0 -0 0 0 0 0 0 0 0 0 0
0 0 0 0 0 0 0 0 0 0 0 0 0 0 0 0 0 0 0 0 0 -0 0 0 0 -0 0 0 0 0 0 -0 -0 -0 -0 -0 0 0 0 0 0 0 0 1
0 0 0 0 0 0 0 0 0 0 0 0 0 0 0 0 0 0 0 0 0 0 0 0 -0 -0 -0 0 -0 -0 -0 -0 -0 0 -0 0 0 0 0 0 0 0 0 1
0 0 0 0 0 0 0 0 0 0 0 0 0 0 0 0 0 -0 0 0 0 0 0 0 -0 -0 -0 -0 -0 -0 -0 -0 0 0 0 0 0 0 0 0 0 0 0 0
0 0 0 0 0 0 0 0 0 0 0 0 0 0 0 0 -0 -0 -0 0 0 0 0 0 -0 -0 -0 -0 -0 -0 -0 0 0 0 0 0 0 0 0 0 0 0 0 0
0 0 0 0 0 0 0 0 0 0 0 -0 0 0 0 -0 0 -0 -0 -0 0 0 -0 0 0 0 0 0 0 0 0 0 0 0 0 0 0 0 0 0 0 0 0 0
0 0 0 0 0 0 0 0 0 0 0 0 0 0 -0 -0 -0 0 0 0 0 0 0 -0 -0 -0 0 0 -0 0 0 0 0 0 0 0 0 0 0 0 0 0 0 0
0 0 0 0 0 0 0 0 0 0 0 0 0 0 0 -0 0 0 -0 -0 -0 -0 -0 -0 0 -0 -0 -0 0 -0 -0 -0 0 0 0 0 0 0 0 0 0 0 0 0
0 0 0 0 0 0 0 -0 0 0 0 0 0 0 0 0 -0 0 0 -0 -0 0 0 -0 -0 -0 -0 -0 0 -0 -0 -0 0 0 0 0 0 0 0 0 0 0 0 0
0 0 0 0 0 0 0 0 0 0 0 0 0 0 0 0 0 -0 -0 0 -0 -0 -0 0 0 0 0 0 0 0 -0 0 0 0 0 0 0 0 0 0 0 0 0 0
0 0 0 0 0 0 0 -0 -0 0 0 0 0 -0 0 0 -0 -0 -0 -0 -0 0 0 0 0 0 0 0 0 0 0 0 0 0 0 0 0 0 0 0 0 0 0 0
Wind_Speed_500mb
11 19 17 21 15 19 21 26 30 29 19 23 30 31 35 42 41 42 40 22 18 19 20 17 17 13 8 3 8 13 21 27 29 30 27 27 31 43 55 58 60 56 57 53
23 25 16 8 20 21 25 32 33 26 20 22 35 43 41 40 36 26 19 23 20 21 23 25 18 15 12 7 7 11 17 23 29 32 31 30 31 39 36 51 58 68 61 53
23 29 11 18 23 26 29 30 31 31 31 36 45 45 35 13 8 18 20 19 19 21 25 25 22 19 15 12 10 11 16 22 25 35 32 37 36 26 35 44 49 55 57 64
24 13 11 22 28 28 26 16 23 32 31 31 34 38 39 29 23 19 24 29 25 24 20 20 19 22 16 17 15 17 20 24 26 34 35 43 35 31 34 39 43 45 58 69
27 13 23 26 19 16 27 23 30 38 38 38 39 24 27 13 24 21 26 25 16 21 27 30 25 23 20 26 25 28 30 29 31 33 37 38 35 36 34 34 39 47 53 64
25 14 9 22 15 13 22 28 35 39 33 24 37 16 21 23 24 20 18 20 23 29 31 29 31 31 33 32 27 34 39 36 36 37 38 42 43 44 49 44 41 38 45 62
32 28 6 11 24 21 24 28 19 14 18 22 22 14 28 32 25 22 19 34 28 28 26 23 30 31 37 31 32 36 43 45 42 42 43 44 46 48 49 42 38 38 37 51
15 19 10 11 17 24 31 23 14 27 27 36 45 43 31 9 15 12 23 25 28 34 36 32 25 27 35 38 39 39 48 50 47 48 47 47 48 43 43 39 38 41 38 42
18 15 25 24 27 22 13 16 16 23 33 34 31 41 29 25 9 19 29 20 25 17 38 23 30 30 35 37 39 41 49 53 51 53 55 53 49 45 45 46 49 46 43 43
15 29 26 13 17 29 28 20 18 11 12 29 31 48 38 18 28 20 26 35 32 35 93 21 26 30 37 40 43 45 47 55 55 55 53 52 51 49 48 47 46 47 53 50
23 17 25 32 35 32 14 25 30 30 23 27 38 25 42 51 48 33 43 32 29 45 57 51 40 39 45 49 53 50 51 57 58 55 54 53 54 51 50 49 48 49 51 48
23 13 27 40 45 33 18 25 30 20 35 34 34 45 42 46 46 56 52 53 38 25 44 47 48 53 51 49 55 53 53 58 58 56 57 58 59 55 54 52 51 49 51 51
18 9 19 23 7 11 19 23 31 37 36 50 34 36 41 55 49 48 23 31 29 35 48 50 52 57 58 55 55 57 58 61 60 59 60 60 60 56 56 56 55 51 50 55
10 22 29 29 39 40 42 45 44 46 23 41 44 52 49 34 33 48 55 42 43 53 58 59 62 59 58 54 62 65 61 59 61 60 61 61 58 58 60 56 52 53 50 49
11 27 31 38 44 44 48 53 49 44 41 35 34 44 47 43 34 51 15 43 50 58 64 71 78 58 60 65 73 65 60 59 58 61 61 61 60 56 54 47 49 51 50 50
14 27 32 44 44 43 45 51 39 27 29 38 42 42 36 60 62 59 60 62 67 75 81 76 75 73 75 73 68 62 62 61 65 64 63 61 56 54 49 42 45 46 52 43
30 28 29 37 38 43 37 18 29 29 26 33 34 46 47 42 44 56 65 70 77 82 69 71 76 84 78 75 65 67 67 65 69 63 61 57 53 51 47 34 42 40 50 36
26 29 24 28 39 36 35 30 23 23 29 34 43 33 34 49 72 70 69 72 70 70 79 86 88 86 77 72 72 70 66 65 66 63 59 52 46 45 42 34 40 39 37 27
9 18 21 19 26 41 26 19 5 14 37 33 18 43 67 69 77 70 53 63 71 81 79 74 76 80 79 76 67 62 62 60 68 60 55 48 40 41 36 34 32 36 25 26
13 23 15 31 38 25 26 31 49 45 31 31 61 59 63 65 29 35 77 76 81 74 67 78 84 81 71 69 61 66 71 63 59 56 50 42 35 38 29 30 28 34 26 24
20 26 26 23 31 23 22 43 43 18 21 65 63 62 65 39 65 87 86 78 71 78 85 73 74 70 68 68 68 64 60 59 49 45 46 28 32 36 23 27 27 21 21 19
23 14 19 16 27 13 57 37 13 26 50 60 70 73 80 84 86 80 78 80 85 80 74 71 77 76 70 64 62 63 58 49 43 40 26 30 28 23 20 33 25 16 14 13
10 8 18 13 17 51 43 43 55 51 62 67 74 77 86 83 80 80 81 83 78 76 74 76 73 74 68 59 53 55 51 38 32 22 21 25 24 12 21 25 21 17 12 14
27 17 17 23 20 41 46 59 49 60 66 71 76 76 82 73 84 80 77 75 81 81 80 77 72 73 71 58 49 47 42 32 27 27 24 22 17 12 21 21 19 14 16 19
32 25 20 31 41 53 42 57 61 67 63 80 75 68 71 77 79 74 75 81 82 84 82 77 72 66 58 48 42 38 35 32 31 27 24 25 19 21 22 26 22 16 18 16
14 12 10 18 53 44 52 59 63 58 70 78 66 77 76 73 74 76 78 80 82 83 81 68 57 53 50 40 35 28 29 32 28 24 23 18 24 24 26 29 23 18 12 12
Wind_Direction_500mb
341 293 264 13 327 313 301 291 290 291 290 300 283 286 285 281 280 275 274 281 260 245 221 215 227 237 238 318 7 349 348 354 357 355 347 317 282 265 255 250 248 247 244 238
262 246 24 327 302 290 287 284 281 290 297 301 295 290 286 272 259 267 291 268 250 220 219 216 225 234 250 277 320 341 338 339 349 355 352 337 316 273 266 254 251 253 235 238
299 291 335 289 285 283 276 292 302 310 316 287 271 273 274 289 237 255 266 257 275 249 234 204 229 238 259 275 298 325 336 332 339 326 337 339 341 324 274 261 257 252 255 235
287 312 300 286 279 287 291 348 307 294 295 291 319 292 285 271 232 226 244 245 241 237 233 250 244 246 260 284 305 317 322 328 328 329 329 319 340 325 304 288 275 262 249 236
279 307 314 301 315 344 296 329 295 286 278 281 277 264 279 200 247 246 258 266 276 242 229 227 239 244 260 282 294 310 311 314 318 320 322 323 310 313 316 297 285 269 254 254
269 288 257 306 330 272 300 282 287 276 259 266 279 303 287 288 337 327 302 273 245 239 242 252 256 257 258 265 292 300 305 305 312 313 314 314 311 306 309 306 284 286 259 259
323 275 112 276 286 236 304 304 315 294 292 254 281 267 269 277 282 286 315 289 262 248 254 272 268 272 282 285 294 299 299 301 304 307 307 307 303 303 305 305 288 278 274 258
324 310 149 92 297 313 300 290 273 287 296 301 308 285 284 187 230 297 265 266 263 266 264 278 282 293 300 303 304 303 299 300 301 303 302 302 301 298 291 291 278 270 267 267
317 276 340 295 303 304 278 262 341 307 295 279 280 279 294 341 77 333 324 309 294 313 285 305 278 294 297 296 295 294 298 299 299 299 299 298 296 292 287 284 281 272 265 270
303 306 293 294 309 265 240 299 300 269 287 282 292 303 284 18 352 312 327 10 339 332 319 296 308 301 299 303 294 294 297 296 298 298 297 295 292 290 288 286 283 273 261 246
286 280 279 302 275 291 270 236 238 256 277 288 296 281 326 324 325 341 322 329 312 312 305 326 301 300 305 298 298 300 296 295 296 298 298 295 294 291 288 285 283 276 269 254
311 298 289 297 290 276 291 289 286 277 283 275 281 282 312 308 319 323 326 322 321 323 297 287 311 308 308 305 297 297 296 295 295 295 295 294 293 292 287 284 284 278 271 263
352 289 310 310 242 163 242 294 294 291 283 281 285 285 298 305 317 304 287 314 320 317 314 314 310 307 307 305 303 299 295 294 293 294 293 294 292 289 284 282 284 277 270 266
300 264 256 272 285 299 297 301 294 280 286 284 283 297 303 321 333 322 330 325 319 318 312 312 311 306 303 305 301 298 295 292 291 291 291 291 288 283 277 275 281 273 268 262
234 278 290 293 298 297 287 282 290 296 300 307 306 303 318 337 330 323 336 318 319 315 310 309 308 301 300 304 304 299 294 291 290 291 289 289 287 285 280 274 279 272 272 255
275 290 293 291 292 303 305 302 330 328 300 324 322 313 332 322 329 334 333 325 315 312 310 307 300 305 309 306 304 296 290 287 289 287 287 289 283 285 282 275 277 272 271 255
285 281 295 302 299 305 296 332 312 329 336 330 315 309 326 326 327 320 314 307 304 307 314 308 303 302 305 302 295 293 289 286 285 285 286 285 283 281 279 272 273 273 271 253
273 284 293 287 297 298 322 13 349 337 322 315 314 342 337 320 312 309 314 307 306 307 312 306 302 299 298 296 294 290 289 285 283 282 283 281 280 277 273 276 268 275 264 262
245 288 293 291 302 303 301 33 33 345 309 329 340 330 324 318 319 304 311 305 307 311 309 304 299 299 298 296 293 291 288 283 281 279 278 276 273 274 266 279 263 268 266 256
240 243 261 287 289 299 2 8 341 324 301 355 335 320 320 317 300 303 314 316 309 307 306 305 301 298 295 293 294 291 285 279 276 276 272 272 268 264 263 270 273 261 272 271
306 312 293 302 297 296 47 355 346 326 322 319 317 316 317 308 301 307 313 313 313 308 306 303 301 297 295 293 295 293 285 279 276 270 269 262 275 258 253 259 261 262 280 275
300 296 298 309 297 304 345 345 343 296 310 310 315 320 320 312 310 309 311 314 312 309 308 304 301 302 302 300 296 291 282 281 273 271 264 277 260 244 261 243 258 250 275 246
292 272 295 280 287 310 320 317 322 315 312 314 321 322 320 313 310 312 309 311 312 310 308 308 303 304 300 297 294 289 287 281 275 262 270 266 251 222 251 254 240 233 235 203
305 306 268 297 290 314 326 316 312 314 312 315 321 318 322 315 315 310 310 311 311 312 311 313 309 304 303 303 300 288 282 274 266 260 258 245 242 248 219 237 222 227 204 193
284 306 316 298 300 329 313 314 308 310 313 325 320 319 320 318 315 315 312 312 312 314 316 315 311 311 309 312 303 288 270 256 251 250 243 229 228 224 241 213 210 208 190 196
347 317 306 296 310 301 291 307 315 317 326 325 324 325 323 323 320 321 317 319 319 318 320 322 322 320 320 316 314 290 259 241 229 225 199 214 222 213 221 213 196 190 195 174
Wind_Speed_850mb
11 19 17 21 15 19 21 26 30 29 19 23 30 31 35 42 41 42 40 22 18 19 20 17 17 13 8 3 8 13 21 27 29 30 27 27 31 43 55 58 60 56 57 53
23 25 16 8 20 21 25 32 33 26 20 22 35 43 41 40 36 26 19 23 20 21 23 25 18 15 12 7 7 11 17 23 29 32 31 30 31 39 36 51 58 68 61 53
23 29 11 18 23 26 29 30 31 31 31 36 45 45 35 13 8 18 20 19 19 21 25 25 22 19 15 12 10 11 16 22 25 35 32 37 36 26 35 44 49 55 57 64
24 13 11 22 28 28 26 16 23 32 31 31 34 38 39 29 23 19 24 29 25 24 20 20 19 22 16 17 15 17 20 24 26 34 35 43 35 31 34 39 43 45 58 69
27 13 23 26 19 16 27 23 30 38 38 38 39 24 27 13 24 21 26 25 16 21 27 30 25 23 20 26 25 28 30 29 31 33 37 38 35 36 34 34 39 47 53 64
25 14 9 22 15 13 22 28 35 39 33 24 37 16 21 23 24 20 18 20 23 29 31 29 31 31 33 32 27 34 39 36 36 37 38 42 43 44 49 44 41 38 45 62
32 28 6 11 24 21 24 28 19 14 18 22 22 14 28 32 25 22 19 34 28 28 26 23 30 31 37 31 32 36 43 45 42 42 43 44 46 48 49 42 38 38 37 51
15 19 10 11 17 24 31 23 14 27 27 36 45 43 31 9 15 12 23 25 28 34 36 32 25 27 35 38 39 39 48 50 47 48 47 47 48 43 43 39 38 41 38 42
18 15 25 24 27 22 13 16 16 23 33 34 31 41 29 25 9 19 29 20 25 17 38 23 30 30 35 37 39 41 49 53 51 53 55 53 49 45 45 46 49 46 43 43
15 29 26 13 17 29 28 20 18 11 12 29 31 48 38 18 28 20 26 35 32 35 93 21 26 30 37 40 43 45 47 55 55 55 53 52 51 49 48 47 46 47 53 50
23 17 25 32 35 32 14 25 30 30 23 27 38 25 42 51 48 33 43 32 29 45 57 51 40 39 45 49 53 50 51 57 58 55 54 53 54 51 50 49 48 49 51 48
23 13 27 40 45 33 18 25 30 20 35 34 34 45 42 46 46 56 52 53 38 25 44 47 48 53 51 49 55 53 53 58 58 56 57 58 59 55 54 52 51 49 51 51
18 9 19 23 7 11 19 23 31 37 36 50 34 36 41 55 49 48 23 31 29 35 48 50 52 57 58 55 55 57 58 61 60 59 60 60 60 56 56 56 55 51 50 55
10 22 29 29 39 40 42 45 44 46 23 41 44 52 49 34 33 48 55 42 43 53 58 59 62 59 58 54 62 65 61 59 61 60 61 61 58 58 60 56 52 53 50 49
11 27 31 38 44 44 48 53 49 44 41 35 34 44 47 43 34 51 15 43 50 58 64 71 78 58 60 65 73 65 60 59 58 61 61 61 60 56 54 47 49 51 50 50
14 27 32 44 44 43 45 51 39 27 29 38 42 42 36 60 62 59 60 62 67 75 81 76 75 73 75 73 68 62 62 61 65 64 63 61 56 54 49 42 45 46 52 43
30 28 29 37 38 43 37 18 29 29 26 33 34 46 47 42 44 56 65 70 77 82 69 71 76 84 78 75 65 67 67 65 69 63 61 57 53 51 47 34 42 40 50 36
26 29 24 28 39 36 35 30 23 23 29 34 43 33 34 49 72 70 69 72 70 70 79 86 88 86 77 72 72 70 66 65 66 63 59 52 46 45 42 34 40 39 37 27
9 18 21 19 26 41 26 19 5 14 37 33 18 43 67 69 77 70 53 63 71 81 79 74 76 80 79 76 67 62 62 60 68 60 55 48 40 41 36 34 32 36 25 26
13 23 15 31 38 25 26 31 49 45 31 31 61 59 63 65 29 35 77 76 81 74 67 78 84 81 71 69 61 66 71 63 59 56 50 42 35 38 29 30 28 34 26 24
20 26 26 23 31 23 22 43 43 18 21 65 63 62 65 39 65 87 86 78 71 78 85 73 74 70 68 68 68 64 60 59 49 45 46 28 32 36 23 27 27 21 21 19
23 14 19 16 27 13 57 37 13 26 50 60 70 73 80 84 86 80 78 80 85 80 74 71 77 76 70 64 62 63 58 49 43 40 26 30 28 23 20 33 25 16 14 13
10 8 18 13 17 51 43 43 55 51 62 67 74 77 86 83 80 80 81 83 78 76 74 76 73 74 68 59 53 55 51 38 32 22 21 25 24 12 21 25 21 17 12 14
27 17 17 23 20 41 46 59 49 60 66 71 76 76 82 73 84 80 77 75 81 81 80 77 72 73 71 58 49 47 42 32 27 27 24 22 17 12 21 21 19 14 16 19
32 25 20 31 41 53 42 57 61 67 63 80 75 68 71 77 79 74 75 81 82 84 82 77 72 66 58 48 42 38 35 32 31 27 24 25 19 21 22 26 22 16 18 16
14 12 10 18 53 44 52 59 63 58 70 78 66 77 76 73 74 76 78 80 82 83 81 68 57 53 50 40 35 28 29 32 28 24 23 18 24 24 26 29 23 18 12 12
Wind_Direction_850mb
341 293 264 13 327 313 301 291 290 291 290 300 283 286 285 281 280 275 274 281 260 245 221 215 227 237 238 318 7 349 348 354 357 355 347 317 282 265 255 250 248 247 244 238
262 246 24 327 302 290 287 284 281 290 297 301 295 290 286 272 259 267 291 268 250 220 219 216 225 234 250 277 320 341 338 339 349 355 352 337 316 273 266 254 251 253 235 238
299 291 335 289 285 283 276 292 302 310 316 287 271 273 274 289 237 255 266 257 275 249 234 204 229 238 259 275 298 325 336 332 339 326 337 339 341 324 274 261 257 252 255 235
287 312 300 286 279 287 291 348 307 294 295 291 319 292 285 271 232 226 244 245 241 237 233 250 244 246 260 284 305 317 322 328 328 329 329 319 340 325 304 288 275 262 249 236
279 307 314 301 315 344 296 329 295 286 278 281 277 264 279 200 247 246 258 266 276 242 229 227 239 244 260 282 294 310 311 314 318 320 322 323 310 313 316 297 285 269 254 254
269 288 257 306 330 272 300 282 287 276 259 266 279 303 287 288 337 327 302 273 245 239 242 252 256 257 258 265 292 300 305 305 312 313 314 314 311 306 309 306 284 286 259 259
323 275 112 276 286 236 304 304 315 294 292 254 281 267 269 277 282 286 315 289 262 248 254 272 268 272 282 285 294 299 299 301 304 307 307 307 303 303 305 305 288 278 274 258
324 310 149 92 297 313 300 290 273 287 296 301 308 285 284 187 230 297 265 266 263 266 264 278 282 293 300 303 304 303 299 300 301 303 302 302 301 298 291 291 278 270 267 267
317 276 340 295 303 304 278 262 341 307 295 279 280 279 294 341 77 333 324 309 294 313 285 305 278 294 297 296 295 294 298 299 299 299 299 298 296 292 287 284 281 272 265 270
303 306 293 294 309 265 240 299 300 269 287 282 292 303 284 18 352 312 327 10 339 332 319 296 308 301 299 303 294 294 297 296 298 298 297 295 292 290 288 286 283 273 261 246
286 280 279 302 275 291 270 236 238 256 277 288 296 281 326 324 325 341 322 329 312 312 305 326 301 300 305 298 298 300 296 295 296 298 298 295 294 291 288 285 283 276 269 254
311 298 289 297 290 276 291 289 286 277 283 275 281 282 312 308 319 323 326 322 321 323 297 287 311 308 308 305 297 297 296 295 295 295 295 294 293 292 287 284 284 278 271 263
352 289 310 310 242 163 242 294 294 291 283 281 285 285 298 305 317 304 287 314 320 317 314 314 310 307 307 305 303 299 295 294 293 294 293 294 292 289 284 282 284 277 270 266
300 264 256 272 285 299 297 301 294 280 286 284 283 297 303 321 333 322 330 325 319 318 312 312 311 306 303 305 301 298 295 292 291 291 291 291 288 283 277 275 281 273 268 262
234 278 290 293 298 297 287 282 290 296 300 307 306 303 318 337 330 323 336 318 319 315 310 309 308 301 300 304 304 299 294 291 290 291 289 289 287 285 280 274 279 272 272 255
275 290 293 291 292 303 305 302 330 328 300 324 322 313 332 322 329 334 333 325 315 312 310 307 300 305 309 306 304 296 290 287 289 287 287 289 283 285 282 275 277 272 271 255
285 281 295 302 299 305 296 332 312 329 336 330 315 309 326 326 327 320 314 307 304 307 314 308 303 302 305 302 295 293 289 286 285 285 286 285 283 281 279 272 273 273 271 253
273 284 293 287 297 298 322 13 349 337 322 315 314 342 337 320 312 309 314 307 306 307 312 306 302 299 298 296 294 290 289 285 283 282 283 281 280 277 273 276 268 275 264 262
245 288 293 291 302 303 301 33 33 345 309 329 340 330 324 318 319 304 311 305 307 311 309 304 299 299 298 296 293 291 288 283 281 279 278 276 273 274 266 279 263 268 266 256
240 243 261 287 289 299 2 8 341 324 301 355 335 320 320 317 300 303 314 316 309 307 306 305 301 298 295 293 294 291 285 279 276 276 272 272 268 264 263 270 273 261 272 271
306 312 293 302 297 296 47 355 346 326 322 319 317 316 317 308 301 307 313 313 313 308 306 303 301 297 295 293 295 293 285 279 276 270 269 262 275 258 253 259 261 262 280 275
300 296 298 309 297 304 345 345 343 296 310 310 315 320 320 312 310 309 311 314 312 309 308 304 301 302 302 300 296 291 282 281 273 271 264 277 260 244 261 243 258 250 275 246
292 272 295 280 287 310 320 317 322 315 312 314 321 322 320 313 310 312 309 311 312 310 308 308 303 304 300 297 294 289 287 281 275 262 270 266 251 222 251 254 240 233 235 203
305 306 268 297 290 314 326 316 312 314 312 315 321 318 322 315 315 310 310 311 311 312 311 313 309 304 303 303 300 288 282 274 266 260 258 245 242 248 219 237 222 227 204 193
284 306 316 298 300 329 313 314 308 310 313 325 320 319 320 318 315 315 312 312 312 314 316 315 311 311 309 312 303 288 270 256 251 250 243 229 228 224 241 213 210 208 190 196
347 317 306 296 310 301 291 307 315 317 326 325 324 325 323 323 320 321 317 319 319 318 320 322 322 320 320 316 314 290 259 241 229 225 199 214 222 213 221 213 196 190 195 174